Starlink 3991

operational
NORAD ID: 52641 Int'l Des: 2022-052 Owner: SPXS Country: US Constellation: starlink
LEOCIRCULAR

Starlink 3991について

説明を読み込み中...

リアルタイム位置

3D地球を読み込み中...

次回通過

高度履歴

Altitude vs Time

uPlot chart will show altitude changes over time

軌道要素

1 52641U 22052AV 26061.65926025 .00002289 00000-0 16188-3 0 9997
2 52641 53.2161 290.8890 0001301 84.4433 275.6708 15.08831009210075
Epoch: Mar 2, 2026 • Age: 45 hours

現在のステータス

高度 544.1 km
速度 7.60 km/s
衛星直下点 47.20°N, 133.67°W
打ち上げ日 May 14, 2022
運用期間 3.8 years
タイプ internet

技術仕様

分類 Payload
質量 297.00 kg
乾燥質量 275.00 kg
総質量 297.00 kg
長さ 0.20 m
直径 2.80 m
スパン 9.00 m
形状 Box + pan
製造者 SPXS
バスタイプ Starlink
フェーズステータス In Orbit
所有者/国 SPXS/US

大規模コンステレーション

Loading constellations...